Change the Weather History Date:

Sunday, October 27, 2013

  Actual Average (KBTL) Record (KBTL)
Temperature  
Mean Temperature 43 °F 47 °F  
Max Temperature 52 °F 57 °F 75 °F (2014)
Min Temperature 34 °F 37 °F 28 °F (1999)
Degree Days  
Heating Degree Days 22 18  
Month to date heating degree days 388  
Since 1 July heating degree days 585  
Cooling Degree Days 0 0  
Month to date cooling degree days 2  
Year to date cooling degree days 575  
Moisture  
Dew Point 31 °F    
Average Humidity 66    
Maximum Humidity 87    
Minimum Humidity 38    
Precipitation  
Precipitation 0.00 in 0.10 in 0.32 in (2000)
Month to date precipitation 2.74  
Year to date precipitation 27.93  
Sea Level Pressure  
Sea Level Pressure 30.01 in    
Wind  
Wind Speed 3 mph (SW)    
Max Wind Speed 16 mph    
Max Gust Speed 20 mph    
Visibility 10 miles    
Events      
T = Trace of Precipitation, MM = Missing Value Source: NWS Daily Summary

Daily Weather History Graph

Daily Weather History Graph

Search for Another Location

Airport or City:

Trip Planner

Search our weather history database for the weather conditions in past years. The results will help you decide how hot, cold, wet, or windy it might be!

Date:

Astronomy

Oct. 27, 2013 Rise Set
Actual Time 8:07 AM EDT 6:39 PM EDT
Civil Twilight 7:38 AM EDT 7:08 PM EDT
Nautical Twilight 7:05 AM EDT 7:41 PM EDT
Astronomical Twilight 6:32 AM EDT 8:13 PM EDT
Moon 12:56 AM EDT (10/27) 2:55 PM EDT (10/27)
Length of Visible Light 11h 30m
Length of Day
10h 32m
Last Quarter, 44% of the Moon is Illuminated
Oct 27
Last Quarter
Nov 3
New
Nov 10
First Quarter
Nov 17
Full
Nov 25
Last Quarter

Hourly Weather History & Observations

Time (EDT) Temp. Windchill Dew Point Humidity Pressure Visibility Wind Dir Wind Speed Gust Speed Precip Events Conditions
12:13 AM 37.8 °F - 32.5 °F 81% 30.01 in 10.0 mi Calm Calm - N/A   Overcast
12:34 AM 37.8 °F - 32.0 °F 80% 30.01 in 10.0 mi Calm Calm - N/A   Scattered Clouds
12:54 AM 34.7 °F 30.6 °F 30.6 °F 85% 30.01 in 10.0 mi West 4.6 mph - N/A   Mostly Cloudy
1:13 AM 37.4 °F 34.9 °F 31.6 °F 80% 30.01 in 10.0 mi West 3.5 mph - N/A   Overcast
1:34 AM 38.1 °F - 32.0 °F 79% 30.01 in 10.0 mi Calm Calm - N/A   Overcast
1:54 AM 37.9 °F - 32.0 °F 79% 30.01 in 10.0 mi Calm Calm - N/A   Overcast
2:13 AM 38.1 °F 35.7 °F 32.2 °F 79% 30.01 in 10.0 mi West 3.5 mph - N/A   Overcast
2:34 AM 38.7 °F - 31.6 °F 76% 30.01 in 10.0 mi Calm Calm - N/A   Overcast
2:54 AM 39.2 °F - 31.1 °F 73% 30.00 in 10.0 mi Calm Calm - N/A   Overcast
3:13 AM 39.0 °F - 30.7 °F 72% 29.99 in 10.0 mi Calm Calm - N/A   Overcast
3:34 AM 36.7 °F 34.1 °F 32.4 °F 84% 30.00 in 10.0 mi WSW 3.5 mph - N/A   Overcast
3:54 AM 37.8 °F - 32.5 °F 81% 30.00 in 10.0 mi Calm Calm - N/A   Overcast
4:13 AM 37.9 °F - 32.9 °F 82% 30.00 in 10.0 mi Calm Calm - N/A   Overcast
4:34 AM 37.6 °F - 32.5 °F 82% 30.00 in 10.0 mi Calm Calm - N/A   Overcast
4:54 AM 37.8 °F - 32.5 °F 81% 30.00 in 10.0 mi Calm Calm - N/A   Overcast
5:13 AM 37.9 °F - 32.5 °F 81% 30.00 in 10.0 mi Calm Calm - N/A   Overcast
5:34 AM 37.9 °F - 32.4 °F 80% 30.01 in 10.0 mi Calm Calm - N/A   Overcast
5:54 AM 37.6 °F - 32.7 °F 83% 30.02 in 10.0 mi Calm Calm - N/A   Overcast
6:13 AM 36.9 °F - 33.1 °F 86% 30.01 in 10.0 mi Calm Calm - N/A   Overcast
6:34 AM 37.0 °F - 32.9 °F 85% 30.02 in 10.0 mi Calm Calm - N/A   Overcast
6:54 AM 37.4 °F - 33.1 °F 84% 30.02 in 10.0 mi Calm Calm - N/A   Overcast
7:14 AM 37.6 °F - 34.2 °F 87% 30.02 in 10.0 mi Calm Calm - N/A   Overcast
7:34 AM 37.6 °F - 33.6 °F 86% 30.02 in 10.0 mi Calm Calm - N/A   Overcast
7:53 AM 37.6 °F - 33.6 °F 86% 30.02 in 10.0 mi Calm Calm - N/A   Overcast
8:14 AM 36.3 °F - 32.5 °F 86% 30.02 in 10.0 mi Calm Calm - N/A   Scattered Clouds
8:34 AM 35.4 °F - 31.6 °F 86% 30.03 in 10.0 mi Calm Calm - N/A   Scattered Clouds
8:53 AM 36.3 °F - 32.5 °F 86% 30.03 in 10.0 mi Calm Calm - N/A   Overcast
9:14 AM 38.3 °F - 34.7 °F 87% 30.04 in 10.0 mi Calm Calm - N/A   Overcast
9:34 AM 39.6 °F - 34.7 °F 83% 30.04 in 10.0 mi Calm Calm - N/A   Overcast
9:53 AM 40.8 °F - 35.1 °F 80% 30.05 in 10.0 mi Calm Calm - N/A   Overcast
10:14 AM 41.9 °F 40.0 °F 36.0 °F 79% 30.05 in 10.0 mi SW 3.5 mph - N/A   Overcast
10:34 AM 42.6 °F 40.9 °F 35.6 °F 76% 30.05 in 10.0 mi SSW 3.5 mph - N/A   Overcast
10:53 AM 43.9 °F 40.5 °F 35.2 °F 72% 30.04 in 10.0 mi SSW 5.8 mph - N/A   Overcast
11:14 AM 45.1 °F 40.8 °F 34.9 °F 67% 30.04 in 10.0 mi SW 8.1 mph - N/A   Overcast
11:33 AM 47.1 °F - 34.7 °F 62% 30.04 in 10.0 mi SW 10.4 mph - N/A   Overcast
11:54 AM 48.0 °F - 34.9 °F 60% 30.03 in 10.0 mi SSW 10.4 mph - N/A   Scattered Clouds
12:14 PM 48.7 °F - 34.2 °F 57% 30.03 in 10.0 mi SSW 11.5 mph - N/A   Clear
12:33 PM 49.5 °F - 32.5 °F 52% 30.03 in 10.0 mi SW 13.8 mph 19.6 mph N/A   Mostly Cloudy
12:54 PM 48.4 °F - 32.0 °F 53% 30.03 in 10.0 mi WSW 10.4 mph - N/A   Overcast
1:14 PM 49.5 °F - 31.5 °F 50% 30.02 in 10.0 mi SW 11.5 mph - N/A   Overcast
1:33 PM 50.9 °F - 32.4 °F 49% 30.01 in 10.0 mi WSW 12.7 mph 17.3 mph N/A   Mostly Cloudy
1:54 PM 48.4 °F - 32.2 °F 54% 30.00 in 10.0 mi West 11.5 mph - N/A   Scattered Clouds
2:14 PM 50.4 °F - 32.0 °F 49% 29.99 in 10.0 mi WSW 10.4 mph - N/A   Clear
2:33 PM 51.8 °F - 31.1 °F 45% 29.99 in 10.0 mi WSW 16.1 mph - N/A   Scattered Clouds
2:54 PM 52.2 °F - 31.1 °F 45% 29.98 in 10.0 mi SSW 9.2 mph 17.3 mph N/A   Clear
3:14 PM 52.2 °F - 30.9 °F 44% 29.97 in 10.0 mi West 11.5 mph - N/A   Clear
3:33 PM 52.0 °F - 28.8 °F 41% 29.97 in 10.0 mi SW 9.2 mph - N/A   Clear
3:54 PM 52.7 °F - 27.9 °F 38% 29.97 in 10.0 mi SW 10.4 mph 17.3 mph N/A   Clear
4:14 PM 52.5 °F - 27.7 °F 38% 29.97 in 10.0 mi WSW 11.5 mph - N/A   Clear
4:33 PM 51.4 °F - 27.9 °F 40% 29.97 in 10.0 mi SW 9.2 mph - N/A   Clear
4:54 PM 52.5 °F - 28.4 °F 39% 29.98 in 10.0 mi SW 9.2 mph - N/A   Clear
5:14 PM 52.0 °F - 28.8 °F 41% 29.97 in 10.0 mi WSW 8.1 mph - N/A   Clear
5:33 PM 51.6 °F - 27.7 °F 40% 29.97 in 10.0 mi SW 10.4 mph - N/A   Clear
5:54 PM 50.9 °F - 28.0 °F 41% 29.98 in 10.0 mi SW 8.1 mph - N/A   Clear
6:14 PM 49.8 °F - 28.0 °F 43% 29.98 in 10.0 mi SW 8.1 mph - N/A   Clear
6:33 PM 48.4 °F - 28.6 °F 46% 29.98 in 10.0 mi SW 4.6 mph - N/A   Clear
6:54 PM 46.9 °F - 28.8 °F 49% 29.98 in 10.0 mi SSW 3.5 mph - N/A   Clear
7:14 PM 46.0 °F 44.8 °F 28.6 °F 51% 29.98 in 10.0 mi SSW 3.5 mph - N/A   Clear
7:34 PM 44.6 °F - 28.6 °F 53% 29.98 in 10.0 mi Calm Calm - N/A   Clear
7:54 PM 42.3 °F - 29.3 °F 60% 29.99 in 10.0 mi Calm Calm - N/A   Clear
8:13 PM 42.4 °F - 29.1 °F 59% 29.99 in 10.0 mi Calm Calm - N/A   Clear
8:34 PM 43.2 °F - 28.8 °F 57% 29.99 in 10.0 mi Calm Calm - N/A   Clear
8:54 PM 42.3 °F - 28.9 °F 59% 30.00 in 10.0 mi Calm Calm - N/A   Clear
9:13 PM 42.4 °F 40.7 °F 28.9 °F 59% 29.99 in 10.0 mi SSW 3.5 mph - N/A   Clear
9:34 PM 42.3 °F 40.5 °F 29.1 °F 60% 30.00 in 10.0 mi SSW 3.5 mph - N/A   Clear
9:54 PM 41.7 °F 38.8 °F 29.3 °F 61% 30.00 in 10.0 mi SSW 4.6 mph - N/A   Clear
10:13 PM 40.8 °F - 28.9 °F 63% 30.00 in 10.0 mi Calm Calm - N/A   Clear
10:34 PM 41.2 °F 39.2 °F 29.1 °F 62% 30.01 in 10.0 mi SW 3.5 mph - N/A   Clear
10:54 PM 40.8 °F 36.9 °F 29.1 °F 63% 30.01 in 10.0 mi SSW 5.8 mph - N/A   Clear
11:13 PM 41.0 °F 37.1 °F 29.3 °F 63% 30.01 in 10.0 mi SW 5.8 mph - N/A   Clear
11:34 PM 41.4 °F 37.6 °F 29.7 °F 63% 30.02 in 10.0 mi SW 5.8 mph - N/A   Clear
11:54 PM 41.2 °F 38.2 °F 29.8 °F 64% 30.02 in 10.0 mi WSW 4.6 mph - N/A   Clear